Regional Weather Roundup
Issued by NWS

Home | Current Version | Previous Version | Graphics & Text | Print | Product List | Glossary On
Versions: 1 2 3 4 5 6 7 8 9 10 11 12 13 14 15 16 17 18 19 20 21 22 23 24 25 26 27 28 29 30 31 32 33 34 35 36 37 38 39 40 41 42 43 44 45 46 47 48 49 50
000
ASUS44 KMEG 012210
RWRTN
TENNESSEE HOURLY STATE WEATHER ROUNDUP
NATIONAL WEATHER SERVICE MEMPHIS TN
500 PM CDT SUN MAY 01 2016

TNZ002-004-019-021-049-052-054-088>092-012300-
WEST TENNESSEE

CITY           SKY/WX    TMP DP  RH WIND       PRES   REMARKS
MEMPHIS INTL   MOSUNNY   82  68  62 VRB5      29.92S
NWS MEMPHIS      N/A     81 N/A N/A MISG        N/A
JACKSON        CLOUDY    71  65  81 S10       29.93F
DYERSBURG      MOSUNNY   79  66  65 S7          N/A
UNION CITY     PTSUNNY   79  66  65 SW7       29.90S
LEXINGTON      MOSUNNY   77  66  69 SW3       29.92F
$$

TNZ008-025-027-028-033-062-065-066-012300-
NORTH MIDDLE TENNESSEE

CITY           SKY/WX    TMP DP  RH WIND       PRES   REMARKS
NASHVILLE      CLOUDY    81  62  52 SW7       29.93S
CLARKSVILLE    PTSUNNY   74  65  73 S7        29.93S
SMYRNA         CLOUDY    82  64  54 SW9       29.94F
COOKEVILLE     MOSUNNY   79  66  65 SW8       29.95S
CROSSVILLE     CLOUDY    77  60  55 W12       30.00R
$$

TNZ061-075-076-078-094-096-097-012300-
SOUTH MIDDLE TENNESSEE

CITY           SKY/WX    TMP DP  RH WIND       PRES   REMARKS
FAYETTEVILLE   PTSUNNY   73  64  73 SW10G21   29.99R
TULLAHOMA      PTSUNNY   73  66  78 SW8       29.99S
WINCHESTER     PTSUNNY   75  64  69 SW6       29.99R
MCMINNVILLE    MOSUNNY   75  66  73 SW8       29.98R
COLUMBIA       MOSUNNY   81  72  74 S9        29.92F
SHELBYVILLE    MOSUNNY   81  68  65 SW9       29.97F
$$

TNZ017-018-042-046-047-012300-
NORTHEAST TENNESSEE

CITY           SKY/WX    TMP DP  RH WIND       PRES   REMARKS
TRI CITIES     CLOUDY    78  61  55 SW9       29.95F
$$

TNZ012-013-036-069-073-074-012300-
CENTRAL EAST TENNESSEE

CITY           SKY/WX    TMP DP  RH WIND       PRES   REMARKS
KNOXVILLE      CLOUDY    79  64  60 SW16      29.94S
OAK RIDGE      CLOUDY    79  63  57 VRB6      29.95S
GATLINBURG     CLEAR     79  63  57 W9        29.94R
MORRISTOWN     CLEAR     79  63  57 W12G21    29.94S
$$

TNZ083-085-099-012300-
SOUTHEAST TENNESSEE

CITY           SKY/WX    TMP DP  RH WIND       PRES   REMARKS
CHATTANOOGA    PTSUNNY   79  64  60 SW9       29.96S
$$

SKY/WX REPORTED AS FAIR MEANS FEW OR NO CLOUDS BELOW
12 THOUSAND FEET.




USA.gov is the U.S. government's official web portal to all federal, state and local government web resources and services.